Menominee, MI

7:35 PM CST on December 17, 2017 (GMT -0600)
Menominee-Marinette Twin County

Weather History for KMNM - October, 2012

Change the Weather History Date:

Friday, October 5, 2012

  Actual Average Record
Temperature  
Mean Temperature 44 °F -  
Max Temperature 51 °F 63 °F 82 °F (2005)
Min Temperature 37 °F 41 °F 24 °F (1952)
Degree Days  
Heating Degree Days 21    
Moisture  
Dew Point 26 °F    
Average Humidity 46    
Maximum Humidity 61    
Minimum Humidity 38    
Precipitation  
Precipitation 0.00 in - - ()
Sea Level Pressure  
Sea Level Pressure 29.94 in    
Wind  
Wind Speed 11 mph (West)    
Max Wind Speed 16 mph    
Max Gust Speed 26 mph    
Visibility 10 miles    
Events      
Averages and records for this station are not official NWS values.
T = Trace of Precipitation, MM = Missing Value Source: NWS Daily Summary

Daily Weather History Graph

Daily Weather History Graph

Search for Another Location

Airport or City:

Trip Planner

Search our weather history database for the weather conditions in past years. The results will help you decide how hot, cold, wet, or windy it might be!

Date:

Astronomy

Oct. 05, 2012 Rise Set
Actual Time 6:54 AM CDT 6:22 PM CDT
Civil Twilight 6:24 AM CDT 6:51 PM CDT
Nautical Twilight 5:50 AM CDT 7:25 PM CDT
Astronomical Twilight 5:16 AM CDT 8:00 PM CDT
Moon 9:33 PM CDT (10/5) 12:14 PM CDT (10/5)
Length of Visible Light 12h 27m
Length of Day
11h 28m
Waning Gibbous, 74% of the Moon is Illuminated
Oct 5
Waning Gibbous
Oct 8
Last Quarter
Oct 15
New
Oct 21
First Quarter
Oct 29
Full

Hourly Weather History & Observations

Time (CDT) Temp. Windchill Dew Point Humidity Pressure Visibility Wind Dir Wind Speed Gust Speed Precip Events Conditions
8:35 AM 41.0 °F 34.3 °F 28.4 °F 61% 29.98 in 10.0 mi WSW 11.5 mph 19.6 mph N/A   Clear
9:55 AM 44.6 °F 38.8 °F 26.6 °F 49% 29.96 in 10.0 mi West 11.5 mph 26.5 mph N/A   Partly Cloudy
10:15 AM 44.6 °F 38.1 °F 26.6 °F 49% 29.96 in 10.0 mi West 13.8 mph 23.0 mph N/A   Partly Cloudy
10:35 AM 46.4 °F 41.9 °F 28.4 °F 50% 29.96 in 10.0 mi West 9.2 mph 19.6 mph N/A   Clear
10:55 AM 46.4 °F 40.1 °F 26.6 °F 46% 29.96 in 10.0 mi West 15.0 mph 26.5 mph N/A   Partly Cloudy
11:35 AM 48.2 °F - 28.4 °F 46% 29.95 in 10.0 mi West 8.1 mph 21.9 mph N/A   Clear
11:55 AM 50.0 °F - 28.4 °F 43% 29.94 in 10.0 mi WNW 10.4 mph 16.1 mph N/A   Clear
12:15 PM 50.0 °F - 28.4 °F 43% 29.94 in 8.0 mi WSW 12.7 mph 23.0 mph N/A   Clear
12:35 PM 48.2 °F - 26.6 °F 43% 29.94 in 10.0 mi West 9.2 mph 19.6 mph N/A   Partly Cloudy
12:55 PM 50.0 °F - 28.4 °F 43% 29.93 in 10.0 mi WSW 12.7 mph 19.6 mph N/A   Partly Cloudy
1:35 PM 48.2 °F - 26.6 °F 43% 29.91 in 10.0 mi WSW 11.5 mph 20.7 mph N/A   Partly Cloudy
1:55 PM 50.0 °F - 26.6 °F 40% 29.91 in 10.0 mi WSW 12.7 mph 19.6 mph N/A   Partly Cloudy
2:15 PM 51.8 °F - 28.4 °F 41% 29.90 in 10.0 mi West 10.4 mph 20.7 mph N/A   Mostly Cloudy
2:35 PM 51.8 °F - 26.6 °F 38% 29.91 in 10.0 mi West 11.5 mph 20.7 mph N/A   Mostly Cloudy
2:55 PM 51.8 °F - 26.6 °F 38% 29.90 in 10.0 mi WSW 10.4 mph 23.0 mph N/A   Scattered Clouds
3:15 PM 51.8 °F - 28.4 °F 41% 29.91 in 10.0 mi WSW 13.8 mph 21.9 mph N/A   Mostly Cloudy
3:35 PM 48.2 °F - 26.6 °F 43% 29.90 in 10.0 mi West 8.1 mph 20.7 mph N/A   Mostly Cloudy
3:55 PM 50.0 °F - 26.6 °F 40% 29.90 in 10.0 mi West 15.0 mph 21.9 mph N/A   Mostly Cloudy
4:15 PM 50.0 °F - 26.6 °F 40% 29.90 in 10.0 mi West 13.8 mph 21.9 mph N/A   Mostly Cloudy
4:35 PM 50.0 °F - 26.6 °F 40% 29.92 in 10.0 mi West 16.1 mph 25.3 mph N/A   Overcast
4:55 PM 48.2 °F - 26.6 °F 43% 29.93 in 10.0 mi West 11.5 mph 20.7 mph N/A   Mostly Cloudy
5:15 PM 48.2 °F - 26.6 °F 43% 29.93 in 10.0 mi West 12.7 mph 19.6 mph N/A   Overcast
5:35 PM 48.2 °F - 26.6 °F 43% 29.92 in 10.0 mi West 10.4 mph 19.6 mph N/A   Overcast
5:55 PM 46.4 °F 40.4 °F 26.6 °F 46% 29.93 in 10.0 mi West 13.8 mph 20.7 mph N/A   Overcast
6:15 PM 46.4 °F 41.5 °F 24.8 °F 43% 29.93 in 10.0 mi West 10.4 mph 16.1 mph N/A   Overcast
6:35 PM 46.4 °F 41.5 °F 24.8 °F 43% 29.94 in 10.0 mi NW 10.4 mph - N/A   Overcast
6:55 PM 44.6 °F 39.2 °F 24.8 °F 46% 29.94 in 10.0 mi NW 10.4 mph 18.4 mph N/A   Overcast
7:15 PM 44.6 °F 39.2 °F 24.8 °F 46% 29.95 in 10.0 mi WNW 10.4 mph 20.7 mph N/A   Overcast
7:35 PM 44.6 °F 39.2 °F 24.8 °F 46% 29.96 in 10.0 mi NW 10.4 mph - N/A   Overcast
7:55 PM 44.6 °F 40.2 °F 24.8 °F 46% 29.97 in 10.0 mi NW 8.1 mph - N/A   Overcast
8:15 PM 42.8 °F 37.0 °F 24.8 °F 49% 29.97 in 10.0 mi West 10.4 mph 16.1 mph N/A   Overcast
8:55 PM 42.8 °F 38.0 °F 23.0 °F 46% 29.96 in 10.0 mi West 8.1 mph - N/A   Overcast
9:15 PM 42.8 °F 39.3 °F 23.0 °F 46% 29.96 in 10.0 mi West 5.8 mph - N/A   Overcast
9:35 PM 41.0 °F 36.4 °F 23.0 °F 49% 29.95 in 10.0 mi West 6.9 mph - N/A   Overcast
9:55 PM 41.0 °F 36.4 °F 23.0 °F 49% 29.95 in 10.0 mi West 6.9 mph - N/A   Overcast
10:35 PM 39.2 °F 34.2 °F 24.8 °F 56% 29.94 in 10.0 mi West 6.9 mph - N/A   Clear
10:55 PM 39.2 °F 34.2 °F 24.8 °F 56% 29.94 in 10.0 mi West 6.9 mph - N/A   Partly Cloudy
11:15 PM 37.4 °F 31.4 °F 24.8 °F 60% 29.93 in 10.0 mi West 8.1 mph - N/A   Scattered Clouds
11:35 PM 37.4 °F 32.1 °F 24.8 °F 60% 29.93 in 10.0 mi West 6.9 mph - N/A   Partly Cloudy
11:55 PM 39.2 °F 34.2 °F 24.8 °F 56% 29.93 in 10.0 mi West 6.9 mph 16.1 mph N/A   Clear